Temp
60 60 59 60 57 59 56 55 54 55 53 52 52 53 54 55 54 53 53 52 52 53 55 55 56 54 54 62 61 61 57 55 52 53 54 55 54 54 54 55 56 58 58
60 59 58 58 57 54 53 52 51 52 51 52 52 52 53 53 52 51 51 52 51 51 53 55 55 57 54 56 58 59 60 57 55 52 52 53 53 53 52 53 54 55 57
59 58 55 56 53 51 51 51 51 51 50 49 49 49 50 50 50 50 49 50 51 51 53 53 54 56 55 56 56 59 61 60 55 52 50 52 52 51 51 53 51 52 54
56 53 53 53 50 50 49 49 49 50 49 49 49 49 49 50 50 50 49 50 48 51 52 53 53 54 55 56 53 56 55 55 56 52 50 49 50 50 50 49 49 49 47
53 53 52 49 51 49 48 48 48 48 48 48 48 49 49 49 49 50 50 48 48 48 50 52 53 56 54 54 56 56 54 52 52 50 49 49 48 48 47 49 46 46 46
53 51 49 49 48 47 48 47 47 47 47 47 47 48 48 48 47 48 50 48 52 48 49 50 51 54 51 50 50 49 51 49 49 49 49 48 48 48 49 46 45 44 44
49 49 48 48 47 47 48 48 47 47 48 50 53 54 53 54 46 46 49 49 47 47 48 48 49 50 51 51 48 49 48 47 47 46 47 47 47 49 48 46 47 48 48
47 47 47 47 47 49 51 52 51 51 50 51 53 55 55 55 46 45 48 49 49 49 49 49 48 47 47 47 47 46 45 45 45 45 44 46 49 51 50 50 50 47 54
46 47 47 47 51 51 51 52 50 50 51 50 51 53 53 53 44 45 49 51 48 52 53 50 49 49 45 46 49 47 48 46 48 46 45 44 44 46 49 50 46 47 53
49 48 51 51 50 49 50 50 52 54 52 52 51 53 50 53 44 44 51 54 52 51 53 51 45 46 43 44 49 51 48 46 48 47 46 46 48 48 49 51 50 49 56
49 50 49 52 53 52 51 51 50 54 49 49 53 54 54 51 52 43 44 51 50 49 48 49 46 43 42 43 46 53 49 48 47 47 45 46 48 48 47 47 51 56 53
51 52 51 47 52 55 55 54 53 51 53 52 53 55 55 52 45 44 43 44 48 49 48 48 46 41 41 42 48 41 43 46 48 46 46 45 47 44 47 49 49 49 47
53 53 53 54 55 54 54 54 55 53 53 54 56 54 53 54 47 45 43 44 45 50 48 44 42 42 42 45 42 43 45 46 45 43 42 43 45 47 47 46 46 46 47
51 49 53 53 53 55 57 56 56 56 55 54 55 54 50 49 49 50 51 50 47 49 49 51 47 46 44 46 47 47 47 46 44 43 43 44 46 46 45 45 43 44 44
52 52 52 54 55 55 53 49 56 51 50 54 53 53 53 46 48 42 43 50 54 48 50 53 50 47 45 44 45 45 44 44 43 44 44 44 44 45 42 44 44 44 42
49 50 52 56 57 56 55 53 40 41 41 40 39 44 49 41 40 40 40 40 40 42 47 44 43 43 42 42 42 42 43 43 42 43 42 43 42 42 43 44 45 44 42
51 53 56 53 54 54 55 54 51 48 43 41 40 40 39 38 40 40 40 41 40 44 44 43 42 42 41 41 42 42 41 42 44 43 42 42 43 44 44 44 45 46 43
53 45 54 53 53 55 53 51 53 50 46 45 44 42 40 40 40 40 41 44 45 44 44 44 44 43 42 42 42 42 42 43 43 43 44 44 45 46 45 45 46 45 42
55 55 53 52 53 53 55 52 52 45 44 44 45 44 44 41 41 41 41 45 45 45 45 44 44 44 44 44 43 43 44 43 44 44 43 44 44 45 44 43 42 41 41
50 43 48 55 56 55 54 54 53 48 44 42 41 41 44 47 44 43 44 44 44 44 44 44 45 46 46 45 45 46 46 46 46 44 43 43 44 45 44 44 46 45 43
56 55 46 57 55 54 53 53 53 49 45 42 41 39 34 42 42 42 42 44 43 43 44 44 45 46 46 46 49 46 45 48 48 45 44 45 45 45 46 49 47 46 46
58 57 57 55 54 52 51 51 49 46 43 42 42 41 36 41 41 42 42 42 42 43 44 46 46 47 47 49 49 47 48 49 48 46 47 48 53 47 47 48 50 52 53
59 57 55 55 54 48 51 51 48 44 42 42 41 41 42 42 43 44 43 44 44 44 44 44 45 46 51 51 55 53 53 49 51 51 50 52 54 51 53 48 48 54 56
59 56 55 54 54 54 53 52 49 43 44 43 42 42 43 45 47 47 47 47 49 48 49 48 48 47 49 52 53 52 51 51 54 54 55 54 52 49 53 51 50 51 54
60 56 54 52 51 50 51 52 52 52 50 48 48 50 52 54 55 55 55 53 53 52 53 56 52 51 50 50 48 48 39 37 48 43 57 54 55 54 57 58 56 59 60
58 56 54 52 51 52 52 53 53 54 53 53 54 55 55 55 56 57 58 59 59 59 59 59 59 58 56 55 52 37 36 37 44 39 60 61 61 61 61 61 62 64 63
MSLP
1017.29 1016.80 1016.26 1015.71 1015.51 1014.90 1014.48 1013.94 1013.40 1012.82 1012.50 1012.16 1011.78 1011.36 1010.98 1010.92 1010.99 1010.82 1010.63 1010.48 1010.03 1009.69 1009.38 1009.12 1008.90 1008.94 1008.51 1007.89 1007.70 1007.96 1008.14 1008.37 1008.20 1008.67 1008.93 1009.32 1009.67 1009.98 1010.49 1010.83 1010.98 1011.11 1011.41
1017.06 1016.48 1015.89 1015.50 1015.17 1014.91 1014.33 1013.75 1013.41 1013.01 1012.67 1012.34 1012.09 1011.60 1011.35 1011.28 1011.19 1011.08 1010.81 1010.59 1010.17 1009.73 1009.40 1009.05 1008.81 1008.64 1008.53 1008.14 1007.99 1008.01 1007.92 1008.07 1008.27 1008.44 1008.95 1009.40 1009.64 1010.25 1010.70 1011.02 1011.45 1011.71 1012.01
1016.82 1016.19 1015.77 1015.25 1015.16 1014.89 1014.51 1014.04 1013.59 1013.19 1013.06 1012.77 1012.45 1012.20 1011.80 1011.52 1011.40 1011.26 1011.00 1010.72 1010.28 1009.87 1009.71 1009.37 1008.97 1008.78 1008.59 1008.39 1007.95 1007.79 1007.70 1007.73 1008.27 1008.34 1008.84 1009.34 1009.79 1010.48 1011.04 1011.46 1011.97 1012.08 1012.34
1016.71 1016.26 1015.70 1015.26 1015.14 1015.13 1014.75 1014.39 1014.00 1013.64 1013.31 1013.00 1012.76 1012.45 1012.09 1011.80 1011.50 1011.24 1011.05 1010.64 1010.46 1010.17 1009.83 1009.54 1009.37 1009.10 1008.75 1008.30 1008.31 1007.92 1007.86 1007.99 1008.22 1008.52 1008.80 1009.38 1009.92 1010.75 1011.11 1011.49 1012.12 1012.63 1013.02
1016.60 1016.06 1015.67 1015.65 1015.50 1015.28 1014.98 1014.69 1014.34 1013.97 1013.60 1013.27 1012.94 1012.61 1012.28 1011.94 1011.70 1011.32 1011.00 1010.78 1010.57 1010.27 1009.98 1009.64 1009.43 1009.10 1009.03 1008.68 1008.18 1007.96 1007.95 1008.32 1008.35 1008.50 1008.91 1009.45 1009.97 1010.75 1011.21 1011.79 1012.40 1012.96 1013.34
1016.46 1016.07 1016.05 1015.92 1015.77 1015.50 1015.19 1014.91 1014.52 1014.11 1013.76 1013.42 1013.10 1012.76 1012.40 1012.17 1011.93 1011.51 1011.13 1010.84 1010.46 1010.49 1010.21 1009.93 1009.78 1009.69 1009.77 1009.51 1009.44 1008.54 1008.84 1008.87 1008.76 1008.84 1009.16 1009.48 1010.03 1010.66 1011.34 1011.97 1012.51 1012.91 1013.22
1016.67 1016.53 1016.39 1016.25 1016.00 1015.70 1015.35 1014.97 1014.58 1014.21 1013.87 1013.40 1012.89 1012.57 1012.31 1012.08 1012.05 1011.69 1011.35 1011.12 1010.94 1010.85 1010.63 1010.41 1010.33 1010.35 1010.16 1010.01 1009.67 1009.96 1009.88 1009.79 1009.75 1009.67 1009.65 1009.86 1010.10 1010.64 1011.26 1012.18 1012.49 1012.58 1012.80
1017.04 1016.86 1016.70 1016.50 1016.15 1015.74 1015.10 1014.72 1014.53 1014.25 1013.87 1013.52 1013.09 1012.73 1012.31 1012.36 1012.17 1011.86 1011.56 1011.39 1011.20 1011.07 1010.97 1010.87 1010.88 1011.02 1011.02 1010.78 1010.64 1010.34 1010.41 1010.44 1010.54 1010.53 1010.45 1010.39 1010.54 1010.98 1011.32 1011.84 1012.47 1013.02 1012.96
1017.39 1017.22 1017.05 1016.77 1016.09 1015.69 1015.24 1014.90 1014.78 1014.49 1014.14 1013.89 1013.62 1013.16 1012.86 1012.71 1012.49 1012.11 1011.76 1011.58 1011.54 1011.32 1011.37 1011.50 1011.55 1011.49 1011.46 1011.09 1010.77 1010.77 1010.90 1011.21 1011.41 1011.42 1011.28 1011.17 1011.11 1011.32 1011.64 1012.21 1012.87 1012.88 1012.68
1017.65 1017.57 1017.16 1016.80 1016.36 1016.07 1015.74 1015.17 1014.73 1014.32 1014.12 1014.08 1013.81 1013.51 1013.32 1012.95 1012.91 1012.48 1012.00 1011.88 1011.75 1011.79 1011.85 1011.99 1012.15 1012.06 1011.98 1011.66 1011.47 1011.27 1011.51 1011.89 1011.78 1011.94 1011.95 1011.91 1011.76 1012.07 1012.26 1012.54 1012.83 1012.91 1012.74
1018.01 1017.68 1017.35 1016.95 1016.40 1016.18 1015.81 1015.48 1015.18 1014.75 1014.69 1014.30 1013.85 1013.64 1013.48 1013.54 1013.23 1012.97 1012.65 1012.50 1012.45 1012.54 1012.65 1012.66 1012.80 1012.68 1012.57 1012.42 1012.10 1012.01 1012.38 1012.39 1012.44 1012.43 1012.54 1012.53 1012.64 1012.84 1013.21 1013.27 1013.22 1012.92 1013.23
1018.01 1017.67 1017.43 1017.24 1016.59 1016.15 1015.79 1015.55 1015.31 1015.01 1014.65 1014.30 1014.11 1013.61 1013.55 1013.84 1013.90 1013.75 1013.48 1013.32 1013.17 1013.19 1013.40 1013.54 1013.66 1013.38 1013.31 1013.19 1012.91 1013.00 1012.91 1012.84 1012.89 1013.04 1013.15 1013.25 1013.42 1013.82 1013.98 1013.98 1014.17 1014.34 1014.43
1017.97 1017.64 1017.42 1017.07 1016.71 1016.49 1016.10 1015.60 1015.32 1015.39 1014.89 1014.67 1014.15 1014.00 1014.09 1014.27 1014.45 1014.42 1014.27 1014.10 1013.95 1013.84 1014.04 1014.21 1014.25 1014.04 1013.84 1013.77 1013.85 1013.70 1013.62 1013.63 1013.65 1013.72 1013.94 1014.17 1014.30 1014.45 1014.59 1014.81 1014.97 1015.09 1015.27
1018.33 1018.18 1017.76 1017.34 1017.00 1016.79 1016.30 1016.14 1015.89 1015.69 1015.44 1015.25 1014.91 1014.53 1015.00 1015.04 1015.00 1014.85 1014.67 1014.63 1014.58 1014.40 1014.30 1014.31 1014.30 1014.22 1014.26 1014.26 1014.19 1014.36 1014.40 1014.42 1014.44 1014.45 1014.54 1014.79 1014.91 1014.96 1015.17 1015.48 1015.53 1015.92 1016.09
1018.75 1018.44 1018.04 1017.56 1017.24 1017.02 1017.28 1017.26 1016.52 1017.03 1016.91 1016.28 1016.09 1015.80 1015.32 1015.82 1015.95 1015.81 1015.40 1015.06 1014.65 1014.80 1014.32 1014.24 1014.36 1014.49 1014.67 1014.83 1014.89 1014.96 1015.01 1015.00 1014.91 1015.06 1015.12 1015.20 1015.41 1015.68 1016.04 1016.22 1016.39 1016.58 1016.73
1019.00 1018.71 1018.35 1017.79 1017.36 1017.29 1017.44 1017.65 1018.07 1017.94 1017.70 1017.56 1017.35 1017.04 1016.71 1016.76 1016.54 1016.17 1016.00 1015.76 1015.40 1015.16 1015.01 1015.03 1015.12 1015.23 1015.38 1015.48 1015.53 1015.55 1015.48 1015.53 1015.61 1015.66 1015.79 1015.94 1016.19 1016.41 1016.67 1016.92 1017.07 1017.27 1017.40
1019.13 1018.72 1018.41 1018.09 1017.84 1017.69 1017.69 1017.71 1017.89 1018.34 1018.27 1018.38 1018.18 1017.85 1017.48 1017.22 1016.85 1016.43 1016.31 1016.17 1015.85 1015.71 1015.70 1015.75 1015.82 1015.93 1016.04 1016.14 1016.19 1016.13 1016.20 1016.33 1016.33 1016.44 1016.55 1016.72 1016.86 1017.06 1017.20 1017.52 1017.71 1017.85 1018.24
1019.14 1019.09 1018.49 1018.62 1018.55 1018.26 1018.13 1018.68 1018.58 1018.68 1018.80 1018.79 1018.71 1018.51 1018.19 1017.78 1017.48 1017.17 1016.95 1016.68 1016.51 1016.34 1016.25 1016.21 1016.29 1016.51 1016.71 1016.75 1016.76 1016.81 1016.93 1017.01 1017.07 1017.08 1017.17 1017.32 1017.44 1017.50 1017.72 1017.98 1018.20 1018.41 1018.78
1019.12 1018.97 1019.26 1019.36 1019.29 1019.00 1018.77 1019.04 1019.35 1019.67 1019.66 1019.52 1019.32 1019.05 1018.85 1018.34 1018.16 1017.89 1017.48 1017.05 1016.85 1016.83 1016.85 1016.85 1017.01 1017.12 1017.20 1017.29 1017.38 1017.50 1017.50 1017.56 1017.60 1017.71 1017.97 1018.10 1018.18 1018.15 1018.40 1018.66 1018.91 1019.02 1019.30
1020.03 1020.11 1019.79 1019.63 1019.45 1019.45 1019.48 1019.51 1019.72 1020.17 1020.46 1020.46 1020.40 1020.19 1019.69 1018.99 1018.90 1018.63 1018.21 1017.92 1017.67 1017.55 1017.37 1017.24 1017.28 1017.46 1017.68 1017.95 1018.01 1018.03 1018.08 1018.13 1018.22 1018.37 1018.57 1018.73 1018.89 1018.94 1019.10 1019.27 1019.48 1019.74 1020.11
1020.23 1020.37 1020.30 1020.08 1020.17 1020.36 1020.51 1020.47 1020.55 1021.03 1021.22 1021.38 1021.31 1021.34 1020.85 1020.36 1019.97 1019.56 1019.14 1018.67 1018.55 1018.39 1018.23 1018.12 1018.08 1018.19 1018.42 1018.55 1018.51 1018.67 1018.78 1018.70 1018.82 1019.17 1019.28 1019.34 1019.38 1019.53 1019.73 1019.85 1020.20 1020.48 1020.66
1020.75 1020.74 1020.80 1020.85 1021.07 1021.21 1021.42 1021.51 1021.74 1022.00 1022.17 1022.22 1022.05 1021.89 1021.55 1021.26 1020.81 1020.31 1020.17 1019.80 1019.57 1019.32 1019.09 1018.94 1019.01 1019.05 1019.20 1019.12 1019.08 1019.15 1019.15 1019.24 1019.43 1019.70 1019.72 1019.80 1019.73 1020.20 1020.43 1020.55 1020.68 1020.79 1020.83
1021.34 1021.48 1021.66 1021.68 1021.84 1022.03 1022.07 1022.36 1022.69 1022.82 1022.97 1023.01 1022.93 1022.70 1022.23 1022.08 1021.67 1021.26 1021.13 1020.94 1020.58 1020.29 1020.12 1019.89 1019.90 1019.85 1019.69 1019.57 1019.34 1019.49 1019.48 1019.75 1019.88 1020.04 1020.13 1020.27 1020.24 1020.66 1020.81 1021.28 1021.41 1021.08 1021.32
1022.01 1022.16 1022.41 1022.47 1022.58 1022.55 1022.73 1022.99 1023.55 1023.77 1023.79 1023.77 1023.64 1023.42 1023.08 1022.76 1022.32 1022.07 1021.85 1021.72 1021.40 1021.13 1020.83 1020.72 1020.64 1020.60 1020.43 1020.28 1020.12 1020.25 1020.30 1020.37 1020.45 1020.53 1020.44 1020.55 1020.95 1021.27 1021.42 1021.68 1021.84 1021.92 1021.84
1022.54 1022.80 1023.07 1023.36 1023.49 1023.57 1023.52 1023.59 1023.83 1024.06 1024.22 1024.28 1024.03 1023.68 1023.37 1023.01 1022.62 1022.34 1021.99 1021.93 1021.84 1021.78 1021.60 1021.20 1021.41 1021.33 1021.30 1021.07 1021.16 1021.21 1021.27 1021.15 1021.02 1021.09 1021.03 1021.21 1021.40 1021.65 1021.73 1021.77 1022.01 1021.95 1021.96
1023.41 1023.64 1023.95 1024.26 1024.35 1024.37 1024.39 1024.37 1024.40 1024.43 1024.44 1024.44 1024.24 1024.02 1023.75 1023.54 1023.32 1022.96 1022.50 1022.17 1021.93 1022.01 1022.01 1022.01 1021.97 1021.87 1021.89 1021.97 1022.18 1022.34 1022.13 1022.00 1021.98 1022.02 1021.68 1021.66 1021.69 1021.96 1022.15 1022.17 1022.13 1022.05 1022.11
Wind_Speed
17 17 17 15 13 15 12 12 11 12 8 8 7 7 5 5 6 5 4 5 4 3 2 2 2 2 1 1 2 3 4 4 4 2 2 4 5 10 8 8 8 9 10
17 16 16 13 13 11 11 9 8 8 6 8 8 6 6 6 6 6 5 4 5 5 5 4 5 3 3 3 0 3 3 4 4 3 2 2 5 9 10 10 8 6 8
16 15 14 13 8 10 9 9 8 7 7 7 7 7 6 6 6 5 5 5 5 4 4 4 4 4 3 2 2 2 2 3 5 2 3 2 3 8 9 8 7 7 6
15 14 13 10 6 7 7 8 7 7 6 6 6 5 6 5 6 5 4 5 5 5 4 4 4 3 2 3 2 2 2 3 5 4 3 4 6 7 7 9 7 5 5
14 13 10 6 7 7 7 7 6 6 6 6 6 6 6 5 5 7 4 4 3 5 5 4 5 5 12 10 3 4 3 1 2 4 5 5 6 8 8 5 6 5 4
13 8 7 7 7 6 6 6 5 5 5 5 6 6 6 4 9 8 7 5 6 6 7 6 7 9 12 16 15 23 16 6 5 2 2 6 7 8 6 8 7 4 3
8 7 7 5 5 5 6 5 5 6 5 7 7 6 6 6 8 6 7 5 4 5 5 6 7 8 11 10 16 17 20 20 17 4 4 4 5 9 8 8 5 4 4
6 6 6 5 6 7 5 7 7 7 6 6 7 6 6 7 10 6 7 5 5 5 6 7 8 8 9 7 8 10 12 12 12 8 6 4 5 8 7 7 7 7 6
6 7 6 5 8 9 9 8 6 6 6 6 6 7 8 8 12 9 5 6 5 10 8 8 7 8 9 10 9 9 10 9 9 12 13 11 10 11 10 8 6 5 5
6 6 7 9 7 8 8 6 4 6 8 6 7 8 9 9 14 12 8 5 8 7 8 8 11 7 8 8 8 7 10 9 7 8 7 9 10 11 10 5 5 4 5
6 7 6 7 6 5 3 6 7 7 3 5 8 8 10 12 11 11 12 6 5 6 6 7 6 10 10 11 10 10 8 5 7 7 5 5 8 9 7 6 5 1 4
6 6 6 4 5 5 6 5 6 4 6 5 7 7 7 8 11 12 11 11 8 7 6 6 6 11 11 9 8 8 9 7 5 6 6 6 8 6 7 8 11 10 9
7 8 6 5 6 7 6 6 7 6 5 8 8 8 8 8 6 8 12 10 10 7 5 7 6 6 8 9 10 8 7 6 6 6 6 6 6 8 9 9 10 11 13
8 7 6 7 6 7 6 5 5 6 6 8 9 7 7 7 7 5 5 4 6 5 5 6 6 9 11 8 7 8 7 6 6 6 6 6 6 6 7 6 7 7 10
7 7 7 5 8 8 10 9 6 9 8 8 8 8 8 6 6 5 6 4 4 4 2 5 7 6 7 6 6 7 6 5 5 5 6 6 7 8 6 5 6 8 8
7 6 6 5 6 5 5 10 13 10 13 14 13 10 7 6 6 8 9 9 8 9 6 6 5 6 6 6 6 6 6 7 6 6 6 6 7 6 7 6 6 7 9
6 6 4 4 5 5 5 6 7 8 13 13 12 13 12 9 13 13 11 11 11 8 6 5 5 6 6 6 5 5 6 5 6 5 6 6 7 7 7 6 6 8 8
4 4 5 6 5 5 7 7 7 9 7 7 7 10 13 12 14 14 12 7 6 5 4 4 5 6 5 5 5 5 6 5 6 6 7 7 7 7 7 7 8 10 7
3 6 6 6 6 5 7 7 8 5 6 7 6 8 11 11 11 10 11 6 3 3 3 4 5 6 5 5 5 5 6 6 6 7 7 7 6 6 9 8 8 9 9
8 8 8 6 7 8 6 6 8 9 7 7 7 7 6 7 8 8 7 7 7 7 7 6 4 5 6 6 5 6 6 7 8 7 7 7 7 7 8 8 9 10 9
6 7 6 8 8 8 8 8 9 9 7 7 6 8 10 8 8 8 7 8 8 8 7 6 7 7 6 6 7 7 6 8 9 8 6 7 7 7 7 10 10 8 8
7 8 8 8 8 8 8 8 9 8 8 7 6 8 10 8 7 6 8 9 8 8 7 7 8 8 7 7 7 6 8 9 8 7 8 7 9 8 7 9 9 10 10
8 9 9 8 9 9 9 10 9 7 7 8 7 7 7 7 6 7 7 7 8 8 7 7 6 6 7 6 8 8 9 6 7 7 8 9 10 9 10 9 7 9 10
9 9 10 9 9 9 9 10 9 9 8 6 6 5 5 6 8 9 7 6 8 8 7 8 8 9 7 8 8 8 7 6 7 9 10 10 10 9 10 9 8 10 10
9 9 9 8 8 8 9 9 9 9 8 6 5 6 6 8 9 9 9 8 8 9 10 10 8 10 12 13 10 11 8 8 8 6 8 10 13 12 10 10 10 11 12
9 9 9 8 8 8 8 9 9 9 9 8 8 9 10 10 10 11 11 12 11 12 13 11 14 17 15 12 13 10 9 9 8 6 10 11 12 11 11 12 13 9 10
Wind_Direction
320 319 317 314 315 312 306 298 295 303 336 319 321 307 7 12 13 14 8 13 21 25 31 39 28 309 15 104 125 196 205 215 232 116 102 136 128 127 103 97 99 97 86
320 320 317 319 323 324 331 344 346 338 332 356 351 1 20 27 27 24 14 8 25 25 14 24 34 15 10 11 338 227 210 211 227 173 126 145 132 125 122 121 108 96 93
320 322 320 317 322 332 332 347 347 2 16 16 15 11 16 26 23 19 12 0 354 17 356 342 358 349 4 340 19 318 252 217 223 154 129 107 109 131 125 119 107 104 88
323 317 313 320 352 347 353 0 3 16 21 16 11 8 16 20 21 13 2 9 359 346 327 316 321 309 307 353 29 42 11 286 219 181 130 132 131 139 131 130 122 81 75
320 313 346 9 11 8 9 8 10 19 14 11 11 10 10 2 2 355 12 16 5 339 331 349 324 69 51 45 63 62 54 253 191 157 142 139 133 147 146 121 110 106 68
316 5 6 21 23 16 13 4 360 5 359 356 352 349 359 358 347 357 13 0 10 9 5 36 32 63 61 59 62 60 54 34 51 82 125 147 139 139 129 132 136 147 129
16 16 28 30 28 5 359 351 357 346 331 340 360 10 12 24 355 351 27 29 27 16 22 34 55 49 52 53 55 60 54 51 49 34 86 82 102 141 134 144 157 117 113
27 31 36 15 1 355 354 7 359 352 357 359 16 17 26 37 355 6 45 53 53 44 47 46 59 56 45 45 50 56 52 44 38 31 31 46 89 137 146 145 130 110 130
38 45 18 353 347 2 7 10 8 3 24 27 12 17 21 33 5 1 43 61 43 58 52 56 56 54 31 29 51 57 60 51 58 51 40 63 83 104 120 123 121 129 115
40 10 344 350 354 3 -0 356 10 21 32 27 34 30 31 38 26 13 19 62 56 49 46 45 34 41 45 45 66 56 56 41 51 53 40 50 69 74 77 90 124 113 115
353 345 357 4 21 31 33 17 358 43 34 23 37 40 39 35 26 28 33 37 54 59 45 44 45 65 56 51 40 52 48 65 68 78 60 62 76 76 65 61 54 25 99
356 26 35 2 1 19 43 51 49 46 36 40 42 43 53 50 34 41 45 51 61 73 65 58 60 62 55 41 58 45 47 52 69 75 83 73 86 75 79 76 73 72 60
41 48 39 31 23 29 33 42 57 75 29 34 29 45 37 38 21 39 49 49 52 85 80 83 81 101 112 81 56 48 58 62 71 73 72 67 78 91 96 84 75 72 65
49 35 17 23 11 30 41 35 33 33 30 36 30 43 59 38 34 30 55 62 62 69 95 70 85 89 65 62 64 65 68 67 70 80 84 80 83 80 77 72 80 79 79
46 31 26 24 26 47 49 21 36 44 22 24 27 29 30 40 26 357 32 37 51 49 24 57 56 56 60 58 59 59 59 57 64 75 86 88 84 84 71 70 72 82 90
33 11 10 11 7 38 59 75 56 73 67 51 38 26 64 41 10 31 42 45 43 30 58 64 59 59 59 56 57 58 52 62 58 65 68 75 82 86 88 83 86 92 92
3 359 3 5 10 29 62 59 83 87 72 51 31 30 31 21 29 26 47 53 46 49 67 62 60 63 61 61 65 52 69 61 69 73 79 81 88 87 90 91 95 91 80
316 299 13 32 50 53 72 63 45 41 28 26 24 27 20 17 39 30 26 46 58 35 38 58 80 80 78 65 64 64 69 65 65 72 72 71 79 92 95 91 92 95 87
354 47 62 66 57 59 57 66 74 37 31 25 12 8 6 11 29 16 6 26 41 63 62 72 82 87 82 68 69 67 69 66 73 75 70 69 71 85 85 80 80 85 90
67 53 68 65 60 59 58 69 67 59 40 30 23 5 2 16 16 15 18 18 24 25 30 46 75 82 88 89 83 85 82 79 78 72 70 71 68 73 83 86 89 90 86
71 68 56 65 59 58 53 54 51 49 42 36 26 19 4 27 19 18 16 34 33 29 31 51 54 76 76 82 89 83 81 88 82 78 79 76 83 88 85 93 95 96 100
65 62 60 60 60 59 68 62 57 52 41 33 18 19 12 29 14 7 18 14 18 24 26 58 66 69 75 83 86 86 88 87 83 81 90 90 91 82 89 95 95 97 109
72 74 68 68 71 73 71 71 67 45 42 41 28 22 11 19 12 16 22 14 16 21 26 37 47 57 73 95 84 83 98 101 104 103 94 102 100 93 91 87 84 101 89
71 69 72 67 61 70 73 81 87 66 54 38 29 19 15 24 34 36 38 40 47 43 40 42 46 50 56 71 71 70 71 75 89 102 106 104 97 98 101 97 96 112 108
74 74 76 75 74 69 68 67 72 84 85 73 53 51 52 57 57 55 52 62 61 57 57 65 66 62 64 70 69 82 79 64 67 76 99 96 100 100 108 101 99 103 104
78 77 79 81 81 78 74 69 65 64 64 60 55 51 51 54 54 51 49 50 55 60 64 61 63 64 66 65 67 56 52 53 68 67 105 105 105 107 107 109 106 98 92